Time,TemperatureF,DewpointF,PressureIn,WindDirection,WindDirectionDegrees,WindSpeedMPH,WindSpeedGustMPH,Humidity,HourlyPrecipIn,Conditions,Clouds,dailyrainin,SoftwareType,DateUTC
2013-04-10 00:00:00,45.3,36.8,29.96,WNW,286,0.0,0.0,72,0.00,,,0.00,WeatherDisplay:10.37,2013-04-10 04:00:00,
2013-04-10 00:10:00,45.1,36.6,29.95,NW,308,0.0,0.0,72,0.00,,,0.00,WeatherDisplay:10.37,2013-04-10 04:10:00,
2013-04-10 00:20:00,45.1,36.6,29.95,NW,308,0.0,0.0,72,0.00,,,0.00,WeatherDisplay:10.37,2013-04-10 04:20:00,
2013-04-10 00:30:00,45.1,36.6,29.94,NW,308,0.0,0.0,72,0.00,,,0.00,WeatherDisplay:10.37,2013-04-10 04:30:00,
2013-04-10 00:40:00,45.0,36.8,29.94,NW,308,0.0,0.0,73,0.00,,,0.00,WeatherDisplay:10.37,2013-04-10 04:40:00,
2013-04-10 00:50:00,45.0,36.8,29.94,NW,308,0.0,0.0,73,0.00,,,0.00,WeatherDisplay:10.37,2013-04-10 04:50:00,
2013-04-10 01:00:00,44.8,37.4,29.93,WNW,291,0.0,0.0,75,0.00,,,0.00,WeatherDisplay:10.37,2013-04-10 05:00:00,
2013-04-10 01:10:00,44.6,37.2,29.94,WSW,244,0.0,0.0,75,0.00,,,0.00,WeatherDisplay:10.37,2013-04-10 05:10:00,
2013-04-10 01:20:00,44.6,37.5,29.95,SSE,150,0.0,0.0,76,0.00,,,0.00,WeatherDisplay:10.37,2013-04-10 05:20:00,
2013-04-10 01:30:00,44.4,37.3,29.97,SSE,150,0.0,0.0,76,0.00,,,0.00,WeatherDisplay:10.37,2013-04-10 05:30:00,
2013-04-10 01:40:00,44.2,37.5,29.96,SSE,150,0.0,0.0,77,0.00,,,0.00,WeatherDisplay:10.37,2013-04-10 05:40:00,
2013-04-10 01:50:00,43.9,37.5,29.99,SE,128,0.0,0.0,78,0.00,,,0.00,WeatherDisplay:10.37,2013-04-10 05:50:00,
2013-04-10 02:00:00,43.7,37.3,29.99,SE,128,0.0,0.0,78,0.00,,,0.00,WeatherDisplay:10.37,2013-04-10 06:00:00,
2013-04-10 02:10:00,43.5,37.4,29.99,SE,128,0.0,0.0,79,0.00,,,0.00,WeatherDisplay:10.37,2013-04-10 06:10:00,
2013-04-10 02:20:00,43.5,37.4,29.99,SE,128,0.0,0.0,79,0.00,,,0.00,WeatherDisplay:10.37,2013-04-10 06:20:00,
2013-04-10 02:30:00,43.3,37.6,29.99,SE,136,0.0,0.0,80,0.00,,,0.00,WeatherDisplay:10.37,2013-04-10 06:30:00,
2013-04-10 02:40:00,43.2,37.4,29.97,SSE,150,0.0,0.0,80,0.00,,,0.00,WeatherDisplay:10.37,2013-04-10 06:40:00,
2013-04-10 02:50:00,43.2,37.7,29.99,SSE,150,0.0,0.0,81,0.00,,,0.00,WeatherDisplay:10.37,2013-04-10 06:50:00,
2013-04-10 03:00:00,43.2,37.7,29.98,SE,128,0.0,0.0,81,0.00,,,0.00,WeatherDisplay:10.37,2013-04-10 07:00:00,
2013-04-10 03:10:00,43.2,38.0,29.96,SE,128,0.0,0.0,82,0.00,,,0.00,WeatherDisplay:10.37,2013-04-10 07:10:00,
2013-04-10 03:20:00,43.2,38.0,29.95,SE,128,0.0,0.0,82,0.00,,,0.00,WeatherDisplay:10.37,2013-04-10 07:20:00,
2013-04-10 03:30:00,43.2,38.0,29.93,SE,131,0.0,0.0,82,0.00,,,0.00,WeatherDisplay:10.37,2013-04-10 07:30:00,
2013-04-10 03:40:00,43.0,38.2,29.93,NNE,24,0.0,0.0,83,0.00,,,0.00,WeatherDisplay:10.37,2013-04-10 07:40:00,
2013-04-10 03:50:00,42.9,38.1,29.94,ENE,71,0.0,0.0,83,0.00,,,0.00,WeatherDisplay:10.37,2013-04-10 07:50:00,
2013-04-10 04:00:00,43.0,38.5,29.94,East,99,0.0,0.0,84,0.00,,,0.00,WeatherDisplay:10.37,2013-04-10 08:00:00,
2013-04-10 04:10:00,42.6,38.1,29.93,East,92,0.0,0.0,84,0.00,,,0.00,WeatherDisplay:10.37,2013-04-10 08:10:00,
2013-04-10 04:20:00,42.8,38.3,29.92,ENE,66,0.0,0.0,84,0.00,,,0.00,WeatherDisplay:10.37,2013-04-10 08:20:00,
2013-04-10 04:30:00,42.8,38.6,29.92,ENE,77,0.0,0.0,85,0.00,,,0.00,WeatherDisplay:10.37,2013-04-10 08:30:00,
2013-04-10 04:40:00,43.0,38.8,29.92,ESE,105,0.0,0.0,85,0.00,,,0.00,WeatherDisplay:10.37,2013-04-10 08:40:00,
2013-04-10 04:50:00,43.0,38.8,29.92,ESE,105,0.0,0.0,85,0.00,,,0.00,WeatherDisplay:10.37,2013-04-10 08:50:00,
2013-04-10 05:00:00,43.0,38.8,29.93,ESE,105,0.0,0.0,85,0.00,,,0.00,WeatherDisplay:10.37,2013-04-10 09:00:00,
2013-04-10 05:10:00,43.0,38.8,29.92,ESE,105,0.0,0.0,85,0.00,,,0.00,WeatherDisplay:10.37,2013-04-10 09:10:00,
2013-04-10 05:20:00,42.8,38.6,29.92,ESE,105,0.0,0.0,85,0.00,,,0.00,WeatherDisplay:10.37,2013-04-10 09:20:00,
2013-04-10 05:30:00,43.0,38.8,29.92,ESE,105,0.0,0.0,85,0.00,,,0.00,WeatherDisplay:10.37,2013-04-10 09:30:00,
2013-04-10 05:40:00,43.0,38.8,29.91,ESE,105,0.0,0.0,85,0.00,,,0.00,WeatherDisplay:10.37,2013-04-10 09:40:00,
2013-04-10 05:50:00,43.0,38.8,29.91,ESE,105,0.0,0.0,85,0.00,,,0.00,WeatherDisplay:10.37,2013-04-10 09:50:00,
2013-04-10 06:00:00,43.0,38.8,29.93,ESE,105,0.0,0.0,85,0.00,,,0.00,WeatherDisplay:10.37,2013-04-10 10:00:00,
2013-04-10 06:10:00,43.0,38.8,29.95,ESE,105,0.0,0.0,85,0.00,,,0.00,WeatherDisplay:10.37,2013-04-10 10:10:00,
2013-04-10 06:20:00,43.0,38.8,29.94,ESE,105,0.0,0.0,85,0.00,,,0.00,WeatherDisplay:10.37,2013-04-10 10:20:00,
2013-04-10 06:30:00,43.0,38.8,29.94,ESE,105,0.0,0.0,85,0.00,,,0.00,WeatherDisplay:10.37,2013-04-10 10:30:00,
2013-04-10 06:40:00,43.0,38.8,29.95,ESE,105,0.0,0.0,85,0.00,,,0.00,WeatherDisplay:10.37,2013-04-10 10:40:00,
2013-04-10 06:50:00,43.2,39.0,29.93,ESE,105,0.0,0.0,85,0.00,,,0.00,WeatherDisplay:10.37,2013-04-10 10:50:00,
2013-04-10 07:00:00,43.2,39.0,29.93,ESE,105,0.0,0.0,85,0.00,,,0.00,WeatherDisplay:10.37,2013-04-10 11:00:00,
2013-04-10 07:10:00,43.0,39.1,29.93,ESE,105,0.0,0.0,86,0.00,,,0.00,WeatherDisplay:10.37,2013-04-10 11:10:00,
2013-04-10 07:20:00,43.0,39.1,29.94,SE,140,0.0,0.0,86,0.00,,,0.00,WeatherDisplay:10.37,2013-04-10 11:20:00,
2013-04-10 07:30:00,43.0,39.1,29.94,SSE,154,0.0,0.0,86,0.00,,,0.00,WeatherDisplay:10.37,2013-04-10 11:30:00,
2013-04-10 07:40:00,43.2,39.3,29.94,SSE,156,0.0,0.0,86,0.00,,,0.00,WeatherDisplay:10.37,2013-04-10 11:40:00,
2013-04-10 07:50:00,43.2,39.3,29.94,South,176,0.0,0.0,86,0.00,,,0.00,WeatherDisplay:10.37,2013-04-10 11:50:00,
2013-04-10 08:00:00,43.2,39.3,29.95,WSW,248,0.0,0.0,86,0.00,,,0.00,WeatherDisplay:10.37,2013-04-10 12:00:00,
2013-04-10 08:10:00,43.0,39.1,29.95,WSW,242,1.0,0.0,86,0.00,,,0.00,WeatherDisplay:10.37,2013-04-10 12:10:00,
2013-04-10 08:20:00,42.8,38.9,29.96,WSW,237,0.0,0.0,86,0.00,,,0.00,WeatherDisplay:10.37,2013-04-10 12:20:00,
2013-04-10 08:30:00,42.9,39.0,29.96,SW,223,0.0,0.0,86,0.00,,,0.00,WeatherDisplay:10.37,2013-04-10 12:30:00,
2013-04-10 08:40:00,43.0,39.4,29.95,SW,218,0.0,0.0,87,0.00,,,0.00,WeatherDisplay:10.37,2013-04-10 12:40:00,
2013-04-10 08:50:00,43.3,39.7,29.96,SW,218,0.0,0.0,87,0.00,,,0.00,WeatherDisplay:10.37,2013-04-10 12:50:00,
2013-04-10 09:00:00,43.7,40.1,29.96,SSE,151,0.0,0.0,87,0.00,,,0.00,WeatherDisplay:10.37,2013-04-10 13:00:00,
2013-04-10 09:10:00,44.1,40.4,29.96,South,169,0.0,0.0,87,0.00,,,0.00,WeatherDisplay:10.37,2013-04-10 13:10:00,
2013-04-10 09:20:00,44.2,40.6,29.96,SW,235,0.0,0.0,87,0.00,,,0.00,WeatherDisplay:10.37,2013-04-10 13:20:00,
2013-04-10 09:30:00,44.6,41.0,29.95,WSW,246,0.0,0.0,87,0.00,,,0.00,WeatherDisplay:10.37,2013-04-10 13:30:00,
2013-04-10 09:40:00,45.0,41.3,29.95,SSW,194,0.0,0.0,87,0.00,,,0.00,WeatherDisplay:10.37,2013-04-10 13:40:00,
2013-04-10 09:50:00,45.5,41.9,29.95,SSE,160,0.0,0.0,87,0.00,,,0.00,WeatherDisplay:10.37,2013-04-10 13:50:00,
2013-04-10 10:00:00,46.0,42.4,29.96,South,174,0.0,0.0,87,0.00,,,0.00,WeatherDisplay:10.37,2013-04-10 14:00:00,
2013-04-10 10:10:00,46.5,42.8,29.96,SSE,163,0.0,0.0,87,0.00,,,0.00,WeatherDisplay:10.37,2013-04-10 14:10:00,
2013-04-10 10:20:00,46.9,43.3,29.96,SSE,161,0.0,0.0,87,0.00,,,0.00,WeatherDisplay:10.37,2013-04-10 14:20:00,
2013-04-10 10:30:00,47.3,43.7,29.98,WSW,254,0.0,0.0,87,0.00,,,0.00,WeatherDisplay:10.37,2013-04-10 14:30:00,
2013-04-10 10:40:00,47.8,44.1,29.97,SW,234,0.0,0.0,87,0.00,,,0.00,WeatherDisplay:10.37,2013-04-10 14:40:00,
2013-04-10 10:50:00,48.2,44.8,29.99,SSW,202,0.0,0.0,88,0.00,,,0.00,WeatherDisplay:10.37,2013-04-10 14:50:00,
2013-04-10 10:59:00,48.2,44.5,29.98,WNW,286,0.0,0.0,87,0.00,,,0.00,WeatherDisplay:10.37,2013-04-10 14:59:00,
2013-04-10 11:10:00,48.4,44.7,29.97,WSW,240,0.0,0.0,87,0.00,,,0.00,WeatherDisplay:10.37,2013-04-10 15:10:00,
2013-04-10 11:20:00,48.7,45.0,29.97,WNW,288,0.0,0.0,87,0.00,,,0.00,WeatherDisplay:10.37,2013-04-10 15:20:00,
2013-04-10 11:30:00,48.9,45.2,29.99,SSW,195,0.0,0.0,87,0.00,,,0.00,WeatherDisplay:10.37,2013-04-10 15:30:00,
2013-04-10 11:40:00,49.3,45.6,29.97,WSW,242,0.0,0.0,87,0.00,,,0.00,WeatherDisplay:10.37,2013-04-10 15:40:00,
2013-04-10 11:50:00,49.5,45.4,29.97,SW,227,0.0,0.0,86,0.00,,,0.00,WeatherDisplay:10.37,2013-04-10 15:50:00,
2013-04-10 12:00:00,49.6,45.6,29.96,West,266,0.0,0.0,86,0.00,,,0.00,WeatherDisplay:10.37,2013-04-10 16:00:00,
2013-04-10 12:10:00,49.6,45.6,29.97,West,263,0.0,0.0,86,0.00,,,0.00,WeatherDisplay:10.37,2013-04-10 16:10:00,
2013-04-10 12:20:00,50.4,46.3,29.96,SSE,147,0.0,0.0,86,0.00,,,0.00,WeatherDisplay:10.37,2013-04-10 16:20:00,
2013-04-10 12:30:00,50.5,46.5,29.96,SSE,153,1.0,0.0,86,0.00,,,0.00,WeatherDisplay:10.37,2013-04-10 16:30:00,
2013-04-10 12:40:00,50.7,46.4,29.97,SE,145,0.0,0.0,85,0.00,,,0.00,WeatherDisplay:10.37,2013-04-10 16:40:00,
2013-04-10 12:50:00,50.9,46.6,29.96,SE,128,0.0,0.0,85,0.00,,,0.00,WeatherDisplay:10.37,2013-04-10 16:50:00,
2013-04-10 13:00:00,50.8,46.1,29.96,SSE,148,0.0,0.0,84,0.00,,,0.00,WeatherDisplay:10.37,2013-04-10 17:00:00,
2013-04-10 13:10:00,51.3,46.6,29.97,ESE,116,0.0,0.0,84,0.00,,,0.00,WeatherDisplay:10.37,2013-04-10 17:10:00,
2013-04-10 13:20:00,51.5,46.8,29.97,WNW,294,0.0,0.0,84,0.00,,,0.00,WeatherDisplay:10.37,2013-04-10 17:20:00,
2013-04-10 13:30:00,52.1,47.1,29.96,ESE,118,0.0,0.0,83,0.00,,,0.00,WeatherDisplay:10.37,2013-04-10 17:30:00,
2013-04-10 13:40:00,52.3,47.0,29.96,SSE,160,0.0,0.0,82,0.00,,,0.00,WeatherDisplay:10.37,2013-04-10 17:40:00,
2013-04-10 13:50:00,52.7,47.4,29.97,SW,227,0.0,0.0,82,0.00,,,0.00,WeatherDisplay:10.37,2013-04-10 17:50:00,
2013-04-10 14:00:00,52.5,46.5,29.97,SSE,164,0.0,0.0,80,0.00,,,0.00,WeatherDisplay:10.37,2013-04-10 18:00:00,
2013-04-10 14:10:00,52.3,46.4,29.97,SE,132,0.0,0.0,80,0.00,,,0.00,WeatherDisplay:10.37,2013-04-10 18:10:00,
2013-04-10 14:20:00,52.7,46.7,29.99,SE,139,0.0,0.0,80,0.00,,,0.00,WeatherDisplay:10.37,2013-04-10 18:20:00,
2013-04-10 14:30:00,53.2,47.2,29.96,SSE,152,0.0,0.0,80,0.00,,,0.00,WeatherDisplay:10.37,2013-04-10 18:30:00,
2013-04-10 14:40:00,53.6,47.2,29.95,South,175,0.0,0.0,79,0.00,,,0.00,WeatherDisplay:10.37,2013-04-10 18:40:00,
2013-04-10 14:50:00,53.8,47.1,29.97,SE,131,0.0,0.0,78,0.00,,,0.00,WeatherDisplay:10.37,2013-04-10 18:50:00,
2013-04-10 14:59:00,53.6,46.6,29.99,SE,141,0.0,0.0,77,0.00,,,0.00,WeatherDisplay:10.37,2013-04-10 18:59:00,
2013-04-10 15:10:00,53.2,46.2,29.96,SSE,159,0.0,0.0,77,0.00,,,0.00,WeatherDisplay:10.37,2013-04-10 19:10:00,
2013-04-10 15:20:00,53.2,46.2,29.92,South,170,0.0,0.0,77,0.00,,,0.00,WeatherDisplay:10.37,2013-04-10 19:20:00,
2013-04-10 15:30:00,53.2,46.2,29.90,NNW,348,0.0,0.0,77,0.00,,,0.00,WeatherDisplay:10.37,2013-04-10 19:30:00,
2013-04-10 15:40:00,53.2,46.2,29.88,NE,55,0.0,0.0,77,0.00,,,0.00,WeatherDisplay:10.37,2013-04-10 19:40:00,
2013-04-10 15:50:00,54.1,47.1,29.89,SSE,147,0.0,0.0,77,0.00,,,0.00,WeatherDisplay:10.37,2013-04-10 19:50:00,
2013-04-10 15:59:00,54.1,46.7,29.90,SE,133,0.0,0.0,76,0.00,,,0.00,WeatherDisplay:10.37,2013-04-10 19:59:00,
2013-04-10 16:10:00,54.0,46.6,29.92,SSE,156,0.0,0.0,76,0.00,,,0.00,WeatherDisplay:10.37,2013-04-10 20:10:00,
2013-04-10 16:20:00,54.0,46.6,29.92,SSE,157,0.0,0.0,76,0.00,,,0.00,WeatherDisplay:10.37,2013-04-10 20:20:00,
2013-04-10 16:30:00,54.0,46.2,29.92,SSE,166,0.0,0.0,75,0.00,,,0.00,WeatherDisplay:10.37,2013-04-10 20:30:00,
2013-04-10 16:40:00,53.8,46.0,29.92,South,175,0.0,0.0,75,0.00,,,0.00,WeatherDisplay:10.37,2013-04-10 20:40:00,
2013-04-10 16:50:00,53.6,45.9,29.92,SW,220,0.0,0.0,75,0.00,,,0.00,WeatherDisplay:10.37,2013-04-10 20:50:00,
2013-04-10 16:59:00,53.6,46.2,29.92,SSE,155,0.0,0.0,76,0.00,,,0.00,WeatherDisplay:10.37,2013-04-10 20:59:00,
2013-04-10 17:10:00,53.6,46.2,29.92,SE,143,0.0,0.0,76,0.00,,,0.00,WeatherDisplay:10.37,2013-04-10 21:10:00,
2013-04-10 17:20:00,53.5,46.1,29.91,SE,146,0.0,0.0,76,0.00,,,0.00,WeatherDisplay:10.37,2013-04-10 21:20:00,
2013-04-10 17:30:00,53.6,46.2,29.91,SSE,151,0.0,0.0,76,0.00,,,0.00,WeatherDisplay:10.37,2013-04-10 21:30:00,
2013-04-10 17:40:00,53.5,46.1,29.90,SSE,150,0.0,0.0,76,0.00,,,0.00,WeatherDisplay:10.37,2013-04-10 21:40:00,
2013-04-10 17:50:00,53.7,47.0,29.90,SSE,150,0.0,0.0,78,0.00,,,0.00,WeatherDisplay:10.37,2013-04-10 21:50:00,
2013-04-10 18:00:00,53.8,47.1,29.90,SSE,150,0.0,0.0,78,0.00,,,0.00,WeatherDisplay:10.37,2013-04-10 22:00:00,
2013-04-10 18:10:00,53.8,47.8,29.90,SSE,157,0.0,0.0,80,0.00,,,0.00,WeatherDisplay:10.37,2013-04-10 22:10:00,
2013-04-10 18:20:00,53.6,47.2,29.90,SSW,195,0.0,0.0,79,0.00,,,0.00,WeatherDisplay:10.37,2013-04-10 22:20:00,
2013-04-10 18:30:00,53.2,46.6,29.89,SSW,195,0.0,0.0,78,0.00,,,0.00,WeatherDisplay:10.37,2013-04-10 22:30:00,
2013-04-10 18:40:00,53.1,46.4,29.89,SSW,197,2.0,0.0,78,0.00,,,0.00,WeatherDisplay:10.37,2013-04-10 22:40:00,
2013-04-10 18:50:00,52.5,45.9,29.88,SSW,200,0.0,0.0,78,0.00,,,0.00,WeatherDisplay:10.37,2013-04-10 22:50:00,
2013-04-10 19:00:00,52.2,45.5,29.88,SW,229,1.0,0.0,78,0.00,,,0.00,WeatherDisplay:10.37,2013-04-10 23:00:00,
2013-04-10 19:10:00,51.8,45.2,29.88,WSW,255,0.0,0.0,78,0.00,,,0.00,WeatherDisplay:10.37,2013-04-10 23:10:00,
2013-04-10 19:20:00,51.7,45.1,29.90,WSW,239,0.0,0.0,78,0.00,,,0.00,WeatherDisplay:10.37,2013-04-10 23:20:00,
2013-04-10 19:30:00,51.3,45.0,29.89,WSW,246,1.0,0.0,79,0.00,,,0.00,WeatherDisplay:10.37,2013-04-10 23:30:00,
2013-04-10 19:40:00,49.7,43.4,29.88,West,264,0.0,0.0,79,0.00,,,0.00,WeatherDisplay:10.37,2013-04-10 23:40:00,
2013-04-10 19:50:00,48.6,43.3,29.89,SW,236,0.0,0.0,82,0.00,,,0.00,WeatherDisplay:10.37,2013-04-10 23:50:00,
2013-04-10 19:59:00,48.2,43.0,29.89,NW,324,0.0,0.0,82,0.00,,,0.00,WeatherDisplay:10.37,2013-04-10 23:59:00,
2013-04-10 20:10:00,47.8,42.9,29.91,ENE,60,0.0,0.0,83,0.00,,,0.00,WeatherDisplay:10.37,2013-04-11 00:10:00,
2013-04-10 20:20:00,47.8,42.9,29.90,NE,44,0.0,0.0,83,0.00,,,0.00,WeatherDisplay:10.37,2013-04-11 00:20:00,
2013-04-10 20:30:00,47.7,43.1,29.92,North,1,0.0,0.0,84,0.00,,,0.00,WeatherDisplay:10.37,2013-04-11 00:30:00,
2013-04-10 20:40:00,47.3,42.7,29.92,WSW,244,0.0,0.0,84,0.00,,,0.00,WeatherDisplay:10.37,2013-04-11 00:40:00,
2013-04-10 20:50:00,47.1,42.5,29.93,WSW,243,0.0,0.0,84,0.00,,,0.00,WeatherDisplay:10.37,2013-04-11 00:50:00,
2013-04-10 20:59:00,46.8,42.5,29.92,WSW,254,0.0,0.0,85,0.00,,,0.00,WeatherDisplay:10.37,2013-04-11 00:59:00,
2013-04-10 21:10:00,46.4,42.1,29.93,West,259,0.0,0.0,85,0.00,,,0.00,WeatherDisplay:10.37,2013-04-11 01:10:00,
2013-04-10 21:20:00,46.3,42.1,29.92,WNW,294,0.0,0.0,85,0.00,,,0.00,WeatherDisplay:10.37,2013-04-11 01:20:00,
2013-04-10 21:30:00,46.0,41.8,29.91,NNW,339,0.0,0.0,85,0.00,,,0.00,WeatherDisplay:10.37,2013-04-11 01:30:00,
2013-04-10 21:40:00,46.0,42.1,29.91,NNW,327,0.0,0.0,86,0.00,,,0.00,WeatherDisplay:10.37,2013-04-11 01:40:00,
2013-04-10 21:50:00,46.0,42.1,29.91,WNW,299,0.0,0.0,86,0.00,,,0.00,WeatherDisplay:10.37,2013-04-11 01:50:00,
2013-04-10 22:00:00,45.9,41.9,29.91,NW,323,0.0,0.0,86,0.00,,,0.00,WeatherDisplay:10.37,2013-04-11 02:00:00,
2013-04-10 22:10:00,45.7,41.7,29.90,NNW,331,0.0,0.0,86,0.00,,,0.00,WeatherDisplay:10.37,2013-04-11 02:10:00,
2013-04-10 22:20:00,45.5,41.6,29.90,West,278,0.0,0.0,86,0.00,,,0.00,WeatherDisplay:10.37,2013-04-11 02:20:00,
2013-04-10 22:30:00,45.1,41.2,29.90,West,267,0.0,0.0,86,0.00,,,0.00,WeatherDisplay:10.37,2013-04-11 02:30:00,
2013-04-10 22:40:00,45.0,41.0,29.90,West,279,0.0,0.0,86,0.00,,,0.00,WeatherDisplay:10.37,2013-04-11 02:40:00,
2013-04-10 22:50:00,44.6,40.7,29.91,WSW,240,1.0,0.0,86,0.00,,,0.00,WeatherDisplay:10.37,2013-04-11 02:50:00,
2013-04-10 22:59:00,44.2,40.6,29.90,West,263,0.0,0.0,87,0.00,,,0.00,WeatherDisplay:10.37,2013-04-11 02:59:00,
2013-04-10 23:10:00,44.1,40.4,29.90,West,260,3.0,0.0,87,0.00,,,0.00,WeatherDisplay:10.37,2013-04-11 03:10:00,
2013-04-10 23:20:00,43.7,40.1,29.91,WSW,251,1.0,0.0,87,0.00,,,0.00,WeatherDisplay:10.37,2013-04-11 03:20:00,
2013-04-10 23:30:00,43.7,40.1,29.90,West,267,2.0,0.0,87,0.00,,,0.00,WeatherDisplay:10.37,2013-04-11 03:30:00,
2013-04-10 23:40:00,44.0,40.4,29.90,NW,304,0.0,0.0,87,0.00,,,0.00,WeatherDisplay:10.37,2013-04-11 03:40:00,
2013-04-10 23:50:00,44.0,40.3,29.90,West,262,2.0,0.0,87,0.00,,,0.00,WeatherDisplay:10.37,2013-04-11 03:50:00,
2013-04-10 23:59:00,44.1,40.4,29.89,West,278,0.0,0.0,87,0.00,,,0.00,WeatherDisplay:10.37,2013-04-11 03:59:00,